{"data":{"norad_id":66285,"intl_designator":"2025-247W","name":"STARLINK-35819","alt_names":[],"object_type":"PAYLOAD","status":"ACTIVE","operator":null,"country":"US","launch_date":"2025-10-31","launch_site_code":"AFWTR","launch_vehicle":null,"mission":null,"orbit_class":"UNKNOWN","rcs_meters":null,"size_class":null,"mass_kg":null,"dimensions":null,"purposes":["comms"],"wikipedia_slug":null,"has_3d_model":false,"image_url":null,"decayed_at":null,"tle_current":{"epoch":"2026-05-24T20:22:01.349472Z","epoch_age_seconds":84957,"freshness":"FRESH","line1":"1 66285U 25247W   26144.84862673  .00012825  00000+0  44429-3 0  9991","line2":"2 66285  53.1575 197.7083 0001306  67.3202 292.7937 15.30207263 32698","mean_motion":15.30207263,"eccentricity":0.0001306,"inclination_deg":53.1575,"raan_deg":197.7083,"arg_perigee_deg":67.3202,"mean_anomaly_deg":292.7937,"bstar":0.00044429,"rev_number":3269,"period_min":94.10489904334,"perigee_km":474.29833854818,"apogee_km":476.08842844435,"semimajor_km":6853.3303834963,"source":"CELESTRAK","updated_at":"2026-05-25T13:38:21.164394Z"}}}